Zurück zum Katalog

COSMOS 2251 DEB

AktivLEO
NORAD 34683·DEBRIS·🇷🇺 Russia

Gestartet Jun 16, 1993 von Plesetsk Cosmodrome

Loading…

Nächste Überflüge (nächste 24 Stunden)

TLE

AktuellSource: Space-Track

Epoche: Sep 14, 2026, 01:20 UTC

1 34683U 93036YD  26257.05606925  .00003303  00000-0  59043-3 0  9993
2 34683  74.0258 281.5376 0020807 317.5150  72.0561 14.67183342923838

Verfolge COSMOS 2251 DEB in Echtzeit mit AllMySat

Download on the App Store